Wind_Speed
9 10 11 12 13 14 15 15 15 14 13 11 10 10 9 7 6 5 3 2 1 1 1 2 3 4 4 5 5 6 6 6 6 6 6 6 6 6 7 7 8 8 9
9 8 10 11 12 13 14 16 15 13 13 11 10 10 9 8 7 5 4 3 3 2 2 2 3 4 5 5 6 6 7 8 8 8 8 7 7 7 7 7 8 8 9
8 7 6 7 9 11 12 14 14 14 14 12 11 9 8 8 7 6 5 4 4 2 2 1 2 3 4 5 6 6 7 8 8 9 8 8 9 9 9 9 9 9 9
9 7 5 5 7 9 11 13 14 14 14 12 11 10 9 8 8 7 6 5 4 3 2 1 1 1 2 3 4 5 7 8 8 9 9 10 10 10 9 9 10 10 10
9 7 4 5 7 8 10 11 13 14 13 12 11 11 11 9 9 8 7 6 5 4 3 2 1 1 2 3 5 6 7 8 9 9 10 11 11 11 11 11 11 11 11
8 7 4 4 6 8 9 11 12 13 12 11 11 12 11 10 10 9 8 7 6 5 4 4 3 3 4 5 6 7 9 9 10 10 11 12 13 13 13 13 12 12 12
8 7 5 4 5 7 9 10 12 11 11 11 11 12 12 11 11 10 9 8 8 7 6 6 6 6 7 8 9 9 10 11 11 12 13 13 14 14 14 14 14 14 14
8 7 6 4 4 6 8 9 10 10 11 11 12 13 13 12 12 11 11 10 10 9 9 9 9 9 10 10 11 12 13 13 14 15 16 16 16 16 16 16 16 16 16
8 7 6 5 4 4 6 8 10 10 11 11 12 13 13 13 13 13 13 12 12 11 11 11 12 12 13 14 15 15 16 17 17 18 18 18 18 18 18 18 18 19 18
8 8 7 5 5 4 6 8 9 10 11 13 13 12 12 13 14 14 14 14 14 14 14 14 15 15 16 17 18 19 19 20 20 20 21 21 21 21 21 21 21 21 21
8 8 8 7 6 6 6 7 9 10 12 12 12 12 13 14 15 15 15 16 16 17 17 17 17 18 19 20 21 22 22 23 23 23 23 23 23 23 23 23 23 23 23
10 10 9 8 7 6 7 7 8 10 11 12 13 14 15 16 16 16 17 18 18 19 19 20 20 21 21 22 23 24 24 25 25 25 25 25 26 26 26 26 26 26 25
12 12 11 10 9 8 8 9 9 10 11 13 14 15 16 17 17 18 19 20 20 21 21 22 23 23 24 25 26 26 26 27 27 27 27 27 27 28 28 28 28 28 28
14 14 13 12 11 11 11 10 11 12 12 13 15 16 17 17 18 19 20 22 23 23 24 24 25 26 27 27 28 28 28 28 29 29 29 29 29 30 30 30 30 31 30
17 16 15 14 13 13 13 14 14 14 15 15 16 17 18 19 20 21 22 23 24 25 26 26 27 28 28 29 30 31 31 31 31 31 31 31 32 32 32 32 32 32 32
18 18 18 18 17 16 17 17 18 18 19 19 20 21 21 22 23 24 24 25 27 28 28 29 29 30 30 31 32 33 33 33 33 33 33 33 33 34 34 34 34 34 34
20 20 20 20 20 20 20 20 21 22 22 23 24 25 25 26 27 27 28 29 30 30 30 31 31 32 32 34 34 35 35 35 35 35 35 35 36 36 36 36 37 37 38
21 22 22 23 23 23 24 24 25 26 26 27 28 29 30 31 31 31 31 32 31 32 32 33 33 34 35 36 37 38 39 38 37 38 38 38 38 39 40 40 40 40 40
22 23 24 24 25 25 26 26 27 29 30 30 30 30 31 33 34 33 33 33 34 35 36 37 37 37 37 38 39 41 41 39 39 40 41 41 41 42 44 44 44 44 43
23 24 24 25 26 27 28 29 29 31 32 32 31 32 32 33 33 34 34 35 35 36 37 38 38 39 39 39 40 41 41 41 40 40 41 42 43 44 45 46 47 47 47
24 25 26 26 27 28 28 29 30 31 32 32 33 34 35 36 36 37 36 36 36 37 38 39 40 41 42 41 41 42 42 43 43 43 44 45 46 47 48 49 49 49 50
25 25 26 27 28 28 29 29 30 32 33 34 34 35 35 36 36 36 35 36 37 38 40 41 42 42 42 42 43 44 44 45 46 47 48 49 51 51 52 52 53 54 55
26 26 26 27 28 29 30 30 30 31 33 34 35 36 35 35 35 36 37 38 38 38 39 40 41 42 42 43 45 46 47 48 49 50 52 53 55 56 56 57 57 58 59
27 28 28 28 29 29 30 31 31 31 32 34 34 34 34 35 36 36 36 37 37 38 40 41 42 43 45 46 47 49 50 52 54 55 57 58 59 60 61 61 62 63 63
29 29 29 29 29 29 29 30 30 31 31 31 32 32 33 34 34 35 36 37 39 41 42 43 44 45 47 49 52 54 55 57 59 60 61 62 63 64 64 65 65 65 65
29 29 29 29 30 30 30 31 31 32 32 32 33 34 35 35 36 37 38 40 41 42 44 45 47 49 52 54 56 58 60 61 63 64 64 65 66 66 67 67 66 65 65
Wind_Direction
295 273 260 245 235 231 229 232 234 235 234 232 228 225 219 223 221 213 204 195 171 138 94 77 61 50 44 40 39 36 34 32 26 18 10 359 346 335 323 315 310 303 297
313 290 262 244 234 232 230 230 231 234 229 225 225 224 219 218 215 205 199 192 172 153 113 85 69 57 50 48 46 41 34 28 23 18 13 3 354 349 341 333 322 316 309
323 314 278 243 229 227 228 230 231 232 227 226 222 219 215 214 211 203 199 190 179 166 147 121 81 59 49 45 41 36 27 20 15 12 8 2 357 352 347 341 331 322 317
337 324 282 245 231 229 230 231 229 229 224 216 216 216 211 207 205 203 199 193 188 183 180 166 111 60 35 23 16 10 5 2 0 359 358 356 353 350 343 337 330 325 321
344 341 304 258 241 231 226 227 225 220 218 216 214 211 208 206 206 206 205 203 205 205 211 218 227 284 325 335 340 339 342 346 348 348 347 347 346 345 341 335 329 323 320
342 348 325 276 246 233 227 230 227 222 222 218 213 210 209 210 210 212 212 214 219 224 235 245 253 271 291 305 316 320 325 330 333 335 336 336 336 336 336 334 330 324 319
335 343 342 310 258 238 231 227 225 221 217 214 213 216 217 214 214 218 221 225 231 237 246 255 263 275 285 295 303 310 314 318 321 323 324 325 327 327 327 328 327 324 321
330 334 339 326 286 243 230 222 219 221 221 219 222 224 222 219 221 227 230 233 239 245 252 260 266 274 282 290 296 300 305 309 313 315 316 317 319 319 318 319 319 318 318
321 324 329 327 309 249 236 230 225 228 227 226 228 226 224 226 230 235 237 241 246 252 256 262 268 275 281 288 292 295 299 302 305 308 310 310 311 313 312 312 312 311 310
312 316 321 319 307 280 248 239 237 238 234 230 231 230 232 234 239 241 243 248 254 258 261 266 272 277 281 286 289 292 295 297 300 302 304 304 305 305 305 306 306 306 307
299 301 305 305 304 288 271 251 244 242 236 234 234 236 239 242 246 245 249 254 259 263 267 270 274 278 282 286 288 290 293 295 296 298 299 300 300 300 300 301 301 301 301
293 293 295 292 293 283 268 261 254 251 244 242 242 244 247 249 249 251 254 258 262 266 270 273 276 279 282 285 287 289 291 293 294 295 295 296 296 297 297 297 297 296 296
292 293 288 282 283 283 274 264 257 256 253 250 249 251 253 253 255 257 259 263 266 269 272 275 278 280 282 284 286 288 289 290 291 292 292 292 293 294 294 294 294 294 293
292 290 288 282 278 277 276 274 268 263 261 258 256 256 257 258 260 262 264 267 269 271 273 276 278 280 282 283 285 286 287 288 288 289 289 289 290 290 291 291 292 292 291
290 289 287 284 279 275 272 271 271 270 268 266 265 265 266 265 266 267 268 270 271 273 274 276 278 279 280 282 283 284 285 285 286 286 286 287 288 288 288 289 290 290 289
286 284 283 282 279 278 276 274 273 273 272 270 269 269 269 271 271 271 271 271 272 273 275 275 276 278 280 281 281 282 283 283 284 284 285 286 287 288 289 288 289 289 289
281 282 280 281 277 276 275 275 276 276 276 274 274 273 272 272 272 272 272 273 273 273 275 275 275 277 279 280 280 280 281 282 283 283 283 284 286 286 286 286 287 288 288
280 280 279 279 277 276 276 275 276 277 277 278 277 275 273 274 273 273 274 273 273 274 275 276 276 278 279 279 280 280 281 281 282 282 283 284 285 285 285 286 285 286 286
279 280 279 279 279 277 278 278 279 278 279 277 276 277 277 278 275 273 275 277 279 280 279 277 278 278 279 279 280 281 282 283 283 282 283 284 285 284 285 286 286 286 286
281 283 282 282 282 281 281 279 279 279 280 279 277 279 281 279 276 274 275 278 280 281 280 280 280 281 282 283 282 283 283 284 284 285 285 284 285 285 285 285 285 285 286
283 283 283 281 282 282 282 282 282 281 280 280 282 282 282 280 278 278 277 279 281 282 282 283 283 284 285 284 284 284 284 285 285 285 286 286 285 286 285 285 285 284 284
284 285 284 283 282 282 282 282 283 283 282 281 282 282 281 283 281 281 281 281 282 283 284 283 284 285 285 285 286 286 287 286 286 287 287 287 287 287 286 286 285 285 284
283 284 285 285 284 282 282 283 284 284 284 283 283 282 281 283 283 282 284 285 286 287 287 286 285 286 287 289 289 289 288 288 288 288 287 287 287 287 287 286 285 284 284
284 283 284 284 284 284 283 283 283 284 286 285 284 282 282 284 284 285 286 286 286 287 289 289 289 290 290 290 290 291 290 289 289 288 288 288 288 287 287 286 285 284 284
285 284 282 283 283 284 285 285 286 286 286 286 287 288 287 288 289 289 289 289 289 290 291 292 293 293 293 293 293 292 292 291 290 289 288 288 287 286 286 285 285 284 283
286 286 285 285 285 285 285 286 287 287 287 287 287 287 289 289 289 289 289 290 291 292 292 293 294 294 294 293 293 292 292 291 291 290 289 289 288 287 287 286 285 283 282
Height
5841 5841 5842 5843 5845 5847 5850 5854 5856 5859 5861 5864 5867 5869 5871 5872 5874 5875 5876 5877 5877 5878 5879 5879 5879 5879 5878 5878 5877 5877 5876 5876 5875 5875 5875 5874 5874 5873 5873 5873 5873 5873 5873
5841 5840 5840 5842 5844 5845 5848 5852 5854 5857 5859 5862 5865 5867 5869 5871 5873 5874 5875 5876 5877 5878 5878 5879 5879 5879 5879 5878 5878 5878 5877 5876 5876 5875 5875 5874 5874 5873 5872 5871 5871 5871 5871
5840 5840 5839 5840 5842 5844 5847 5849 5852 5854 5857 5860 5863 5866 5868 5870 5872 5873 5875 5875 5876 5877 5878 5878 5879 5879 5879 5879 5879 5878 5878 5877 5876 5875 5875 5874 5873 5872 5871 5870 5870 5870 5869
5841 5839 5839 5840 5841 5843 5845 5847 5850 5852 5855 5858 5862 5864 5866 5868 5870 5872 5874 5875 5876 5877 5877 5878 5879 5879 5879 5879 5879 5878 5878 5877 5876 5875 5874 5873 5872 5872 5871 5870 5869 5868 5867
5842 5840 5839 5839 5841 5842 5844 5846 5848 5851 5853 5857 5860 5862 5865 5867 5869 5871 5873 5874 5875 5876 5877 5877 5878 5878 5878 5878 5878 5878 5877 5877 5876 5875 5874 5873 5872 5870 5870 5869 5868 5867 5866
5842 5841 5840 5839 5840 5841 5843 5845 5847 5850 5852 5855 5858 5861 5863 5865 5867 5869 5871 5873 5874 5875 5876 5876 5877 5877 5877 5877 5877 5877 5876 5876 5875 5874 5873 5872 5871 5869 5868 5867 5866 5865 5864
5843 5841 5840 5839 5838 5840 5842 5844 5846 5848 5851 5853 5856 5859 5861 5864 5866 5868 5870 5871 5873 5874 5874 5875 5875 5875 5876 5876 5876 5875 5875 5874 5873 5872 5871 5870 5869 5867 5866 5865 5864 5863 5862
5843 5842 5841 5840 5839 5839 5841 5843 5845 5847 5850 5852 5855 5857 5860 5862 5864 5866 5868 5869 5871 5871 5872 5873 5873 5873 5874 5874 5874 5873 5873 5872 5871 5870 5869 5868 5867 5865 5864 5862 5861 5860 5859
5843 5842 5841 5840 5840 5840 5841 5842 5844 5846 5848 5851 5853 5855 5857 5859 5862 5864 5865 5867 5868 5869 5869 5870 5870 5871 5871 5871 5871 5870 5870 5869 5868 5867 5866 5865 5864 5862 5861 5859 5858 5857 5855
5843 5842 5841 5841 5840 5840 5840 5841 5843 5845 5846 5849 5851 5853 5855 5857 5859 5861 5862 5864 5865 5866 5866 5867 5867 5867 5867 5867 5867 5867 5866 5865 5864 5863 5862 5861 5860 5858 5857 5856 5854 5852 5851
5842 5841 5841 5840 5840 5839 5840 5840 5842 5843 5845 5846 5848 5851 5852 5854 5856 5857 5859 5860 5861 5862 5862 5863 5863 5863 5863 5863 5862 5862 5861 5860 5859 5858 5857 5856 5855 5853 5852 5851 5849 5848 5846
5840 5840 5840 5839 5839 5839 5839 5840 5840 5841 5842 5844 5846 5848 5849 5851 5852 5854 5855 5856 5856 5857 5857 5858 5858 5858 5858 5857 5857 5856 5856 5855 5854 5853 5851 5850 5849 5848 5846 5845 5843 5842 5841
5838 5838 5838 5838 5837 5838 5838 5838 5839 5839 5841 5842 5843 5844 5846 5847 5848 5849 5850 5851 5851 5852 5852 5852 5852 5852 5852 5851 5851 5850 5849 5848 5847 5846 5845 5844 5842 5841 5839 5838 5837 5835 5834
5836 5836 5836 5836 5836 5836 5836 5836 5837 5837 5838 5839 5840 5841 5841 5842 5843 5844 5845 5845 5846 5846 5846 5846 5846 5845 5845 5844 5844 5843 5842 5841 5840 5839 5838 5836 5835 5834 5832 5831 5829 5828 5826
5833 5833 5834 5833 5833 5833 5833 5833 5834 5834 5835 5835 5835 5836 5837 5837 5838 5838 5839 5839 5839 5839 5839 5839 5838 5838 5837 5837 5836 5835 5834 5833 5832 5831 5830 5829 5827 5826 5824 5822 5821 5819 5818
5829 5829 5829 5829 5829 5829 5829 5829 5829 5830 5830 5830 5831 5831 5831 5831 5832 5832 5832 5832 5831 5831 5831 5830 5829 5829 5829 5828 5827 5826 5825 5825 5824 5822 5821 5820 5818 5817 5815 5813 5811 5810 5809
5825 5825 5824 5823 5824 5824 5825 5825 5825 5825 5825 5824 5824 5824 5824 5824 5824 5824 5824 5823 5822 5822 5822 5822 5821 5820 5819 5818 5818 5816 5816 5815 5814 5813 5811 5810 5809 5807 5805 5803 5801 5800 5798
5820 5820 5820 5819 5819 5819 5818 5819 5819 5818 5818 5817 5817 5817 5815 5816 5815 5815 5815 5814 5813 5812 5812 5812 5812 5811 5810 5809 5808 5806 5805 5805 5804 5802 5801 5799 5798 5796 5794 5792 5791 5789 5787
5815 5815 5814 5813 5813 5813 5813 5811 5812 5810 5809 5808 5808 5808 5807 5806 5805 5806 5805 5805 5804 5803 5803 5802 5802 5801 5800 5798 5797 5795 5794 5794 5793 5791 5789 5788 5786 5784 5781 5779 5778 5777 5775
5809 5809 5809 5808 5807 5807 5807 5806 5806 5804 5802 5801 5799 5800 5799 5797 5795 5796 5796 5796 5795 5794 5793 5792 5791 5790 5789 5787 5786 5784 5782 5781 5780 5779 5777 5775 5773 5771 5769 5766 5765 5763 5761
5803 5803 5802 5802 5801 5800 5800 5799 5798 5797 5795 5793 5793 5792 5791 5789 5787 5787 5786 5785 5785 5784 5783 5782 5780 5779 5777 5776 5774 5772 5770 5769 5767 5765 5764 5761 5759 5757 5755 5752 5750 5748 5746
5797 5796 5796 5795 5794 5793 5792 5791 5790 5789 5787 5786 5784 5783 5782 5780 5779 5778 5777 5775 5775 5774 5772 5771 5769 5767 5765 5763 5761 5760 5758 5755 5753 5751 5749 5747 5744 5742 5739 5736 5734 5731 5728
5791 5790 5789 5788 5787 5785 5784 5783 5782 5780 5779 5777 5775 5773 5772 5772 5770 5769 5768 5766 5764 5762 5761 5759 5757 5755 5753 5751 5749 5747 5744 5741 5739 5736 5734 5731 5728 5724 5722 5719 5716 5713 5710
5783 5782 5781 5780 5779 5778 5776 5775 5774 5772 5770 5768 5767 5765 5763 5762 5761 5759 5758 5756 5754 5752 5750 5748 5745 5743 5740 5738 5735 5732 5729 5726 5723 5720 5717 5713 5710 5706 5703 5700 5696 5693 5690
5776 5774 5773 5772 5771 5770 5768 5767 5765 5763 5762 5759 5758 5756 5754 5753 5751 5749 5747 5745 5743 5740 5738 5735 5732 5730 5727 5723 5720 5716 5712 5708 5705 5701 5698 5694 5690 5686 5683 5679 5675 5671 5668
5768 5766 5765 5764 5762 5761 5760 5758 5756 5755 5753 5751 5749 5747 5745 5743 5741 5739 5736 5733 5731 5728 5725 5722 5719 5715 5711 5707 5703 5698 5694 5689 5684 5681 5677 5672 5668 5664 5660 5656 5652 5649 5645